timestamp,surface_pressure_avg,surface_temp_avg,battery_voltage,lat,long
2022-09-06 00:09:01+00:00,230.0264,22.12,11.7,47.84626,-54.09684
2022-09-06 00:19:00+00:00,227.7881,22.18,11.61,47.84626,-54.09684
2022-09-06 00:29:00+00:00,227.9115,22.2,11.61,47.84626,-54.09684
2022-09-06 00:39:00+00:00,224.988,22.19,11.61,47.84626,-54.09684
2022-09-06 00:49:00+00:00,222.5215,22.15,11.61,47.84626,-54.09684
2022-09-06 00:59:00+00:00,224.6798,22.11,11.61,47.84626,-54.09684
2022-09-06 01:09:00+00:00,223.9681,22.1,11.61,47.84626,-54.09684
2022-09-06 11:19:00+00:00,229.8598,20.4,11.61,47.84626,-54.09684
2022-09-06 11:29:00+00:00,226.0414,20.43,11.61,47.84626,-54.09684
2022-09-06 11:39:00+00:00,223.0414,20.47,11.61,47.84626,-54.09684
2022-09-06 11:49:00+00:00,222.9733,20.46,11.61,47.84626,-54.09684
2022-09-06 11:59:00+00:00,220.6848,20.45,11.61,47.84626,-54.09684
2022-09-06 12:09:00+00:00,218.4332,20.46,11.61,47.84626,-54.09684
2022-09-06 12:19:00+00:00,218.3065,20.47,11.61,47.84626,-54.09684
2022-09-06 12:29:00+00:00,219.4065,20.4,11.61,47.84626,-54.09684
2022-09-06 12:39:00+00:00,217.9214,20.4,11.61,47.84626,-54.09684
2022-09-06 12:49:00+00:00,213.7564,20.39,11.61,47.84626,-54.09684
2022-09-06 12:59:00+00:00,212.9997,20.3,11.61,47.84626,-54.09684
2022-09-06 13:09:00+00:00,213.6364,20.27,11.61,47.84626,-54.09684
2022-09-06 13:19:01+00:00,211.0997,20.32,11.61,47.84626,-54.09684
2022-09-06 13:29:01+00:00,207.8998,20.4,11.61,47.84626,-54.09684
2022-09-06 13:39:01+00:00,208.7748,20.4,11.61,47.84626,-54.09684
2022-09-06 13:49:01+00:00,209.4248,20.37,11.61,47.84626,-54.09684
2022-09-06 13:59:01+00:00,205.9781,20.3,11.61,47.84626,-54.09684
2022-09-06 14:09:01+00:00,206.0915,20.3,11.61,47.84626,-54.09684
2022-09-06 14:19:00+00:00,208.9398,20.28,11.61,47.84626,-54.09684
2022-09-06 14:29:00+00:00,205.5564,20.2,11.61,47.84626,-54.09684
2022-09-06 14:39:00+00:00,204.0131,20.2,11.61,47.84626,-54.09684
2022-09-06 14:49:00+00:00,207.7398,20.11,11.61,47.84626,-54.09684
2022-09-06 14:59:00+00:00,210.2347,20.1,11.61,47.84626,-54.09684
2022-09-06 15:09:00+00:00,211.2715,20.1,11.61,47.84626,-54.09684
2022-09-06 15:19:01+00:00,213.8081,20.1,11.61,47.84626,-54.09684
2022-09-06 15:29:01+00:00,217.543,20.09,11.61,47.84626,-54.09684
2022-09-06 15:39:01+00:00,221.2398,20.1,11.61,47.84626,-54.09684
2022-09-06 15:49:01+00:00,223.6481,20.04,11.61,47.84626,-54.09684
2022-09-06 15:59:01+00:00,228.9664,19.97,11.61,47.84626,-54.09684
2022-09-06 16:09:01+00:00,234.6265,19.94,11.61,47.84626,-54.09684
2022-09-06 16:19:00+00:00,238.6381,19.94,11.61,47.84626,-54.09684
2022-09-06 16:29:00+00:00,240.6481,19.98,11.61,47.84626,-54.09684
2022-09-06 16:39:00+00:00,245.9781,20.0,11.61,47.84626,-54.09684
2022-09-06 16:49:00+00:00,253.9797,19.9,11.61,47.84626,-54.09684
2022-09-06 16:59:00+00:00,263.2564,19.9,11.61,47.84626,-54.09684
2022-09-06 17:09:00+00:00,270.1181,19.9,11.61,47.84626,-54.09684
2022-09-06 17:19:00+00:00,274.7147,19.91,11.61,47.84626,-54.09684
2022-09-06 17:29:00+00:00,281.0164,19.8,11.61,47.84626,-54.09684
2022-09-06 17:39:00+00:00,289.5747,19.89,11.61,47.84626,-54.09684
2022-09-06 17:49:00+00:00,294.0247,19.9,11.61,47.84626,-54.09684
2022-09-06 17:59:00+00:00,297.2946,19.9,11.61,47.84626,-54.09684
2022-09-06 18:09:00+00:00,303.3281,19.9,11.61,47.84626,-54.09684
2022-09-06 18:19:00+00:00,307.343,19.9,11.61,47.84626,-54.09684
2022-09-06 18:29:00+00:00,307.2113,19.98,11.61,47.84626,-54.09684
2022-09-06 18:39:00+00:00,313.093,19.9,11.61,47.84626,-54.09684
2022-09-06 18:49:00+00:00,322.0163,19.8,11.61,47.84626,-54.09684
2022-09-06 18:59:00+00:00,325.6145,19.8,11.61,47.84626,-54.09684
2022-09-06 19:09:00+00:00,325.0363,19.8,11.61,47.84626,-54.09684
2022-09-06 19:19:01+00:00,328.913,19.7,11.53,47.84626,-54.09684
2022-09-06 19:29:01+00:00,337.7197,19.7,11.53,47.84626,-54.09684
2022-09-06 19:39:01+00:00,337.1446,19.7,11.53,47.84626,-54.09684
2022-09-06 19:49:01+00:00,335.2881,19.7,11.53,47.84626,-54.09684
2022-09-06 19:59:01+00:00,339.483,19.7,11.53,47.84626,-54.09684
2022-09-06 20:09:01+00:00,344.0997,19.7,11.53,47.84626,-54.09684
2022-09-06 20:19:00+00:00,344.7814,19.7,11.53,47.84626,-54.09684
2022-09-06 20:29:00+00:00,343.24300000000005,19.7,11.53,47.84626,-54.09684
2022-09-06 20:39:00+00:00,344.9346,19.68,11.53,47.84626,-54.09684
2022-09-06 20:49:00+00:00,343.9396,19.68,11.53,47.84626,-54.09684
2022-09-06 20:59:00+00:00,340.7596,19.6,11.53,47.84626,-54.09684
2022-09-06 21:09:00+00:00,339.6064,19.6,11.53,47.84626,-54.09684
2022-09-06 21:19:01+00:00,337.3579,19.6,11.53,47.84626,-54.09684
2022-09-06 21:29:01+00:00,336.5663,19.6,11.53,47.84626,-54.09684
2022-09-06 21:39:01+00:00,332.2413,19.6,11.53,47.84626,-54.09684
2022-09-06 21:49:01+00:00,326.5913,19.6,11.53,47.84626,-54.09684
2022-09-06 21:59:01+00:00,322.6747,19.63,11.53,47.84626,-54.09684
2022-09-06 22:09:01+00:00,320.4431,19.67,11.53,47.84626,-54.09684
2022-09-06 22:19:01+00:00,314.5314,19.69,11.53,47.84626,-54.09684
2022-09-06 22:29:01+00:00,308.3962,19.7,11.53,47.84626,-54.09684
2022-09-06 22:39:01+00:00,304.9547,19.7,11.53,47.84626,-54.09684
2022-09-06 22:49:01+00:00,300.603,19.7,11.53,47.84626,-54.09684
2022-09-06 22:59:01+00:00,289.7947,19.67,11.53,47.84626,-54.09684
2022-09-06 23:09:01+00:00,283.9231,19.6,11.53,47.84626,-54.09684
2022-09-06 23:19:00+00:00,280.4447,19.6,11.53,47.84626,-54.09684
2022-09-06 23:29:00+00:00,273.3647,19.62,11.53,47.84626,-54.09684
2022-09-06 23:39:00+00:00,262.868,19.7,11.53,47.84626,-54.09684
2022-09-06 23:49:00+00:00,258.4747,19.7,11.53,47.84626,-54.09684
2022-09-06 23:59:00+00:00,254.9581,19.7,11.53,47.84626,-54.09684
